Location: Zagreb
(45.8000°N, 16.0000°E)
Time: 22:02:47
(UTC+01:00)

Vanguard 2 Rocket - Pass Details

Date: 03 February 2020
Orbit: 553 x 3327 km, 32.9° (Epoch: 24 February)

Event Time Altitude Azimuth Distance (km) Brightness Sun altitude
Exits shadow 06:23:29 - 238° (WSW) 2,542 8.8 -9.5°
Reaches altitude 10° 06:26:41 10° 203° (SSW) 2,118 8.7 -9.0°
Maximum altitude 06:27:39 11° 191° (SSW) 2,157 8.9 -8.8°
Drops below altitude 10° 06:28:40 10° 180° (S) 2,283 9.2 -8.7°
Sets 06:34:10 0° 143° (SE) 3,794 11.0 -7.7°
